www.pogodaiklimat.ru

Погода и климат >> Архив погоды >> Россия >> Северная Осетия >> Владикавказ


АРХИВ ПОГОДЫ в Владикавказе

Время (UTC), дата Ветер
(напр.,м/с)
 
Видим.   Явления Облачность Т
(С)
Тd
(С)
f
(%)
Тe
(С)
Тes
(С)
Комфортность P
(гПа)
Po
(гПа)
Тmin
(С)
Tmax
(С)
R
(мм)
R24
(мм)
S
(см)
12 17.11 СЗ 1 10 км 10/10 300 м
[Sc]
+6.0 +2.5 78 +5 +5 по сезону 1026.2 942.5
15 17.11 С 1 4000 м дымка 10/10 300 м
[St]
+5.6 +2.3 79 +5 +5 по сезону 1026.7 942.9 +6.5
18 17.11 В 2 4000 м дымка 10/10 300 м
[St]
+5.3 +2.3 81 +3 +3 по сезону 1025.8 942.0
21 17.11 С 1 4000 м дымка 10/10 300 м
[St]
+4.9 +1.9 81 +4 +4 по сезону 1025.0 941.1
00 18.11 С 1 4000 м дымка 10/10 300 м
[St]
+4.5 +1.4 80 +3 +3 по сезону 1024.5 940.5
03 18.11 С 1 4000 м дымка 10/10 300 м
[St]
+3.4 +1.0 84 +2 +2 по сезону 1023.9 939.7 +3.4
06 18.11 СЗ 1 4000 м дымка 10/10 300 м
[St]
+4.3 +1.3 81 +3 +3 по сезону 1023.1 939.2
09 18.11 С 1 20 км 5/3 600 м
[Sc Ac und]
+6.7 +1.4 69 +6 +9 по сезону 1021.3 938.2
12 18.11 С 1 20 км 4/0
[Ci fib]
+8.1 +1.6 64 +8 +9 по сезону 1020.2 937.6
15 18.11 штиль 0 10 км ясно +3.4 +0.9 84 +2 +2 по сезону 1021.6 937.5 +8.5
18 18.11 штиль 0 10 км ясно +0.9 -0.6 90 -0 -0 по сезону 1021.9 937.1
21 18.11 Ю 1 10 км ясно +2.3 -1.4 77 +1 +1 по сезону 1019.7 935.5
00 19.11 Ю 1 10 км ясно +3.7 -2.3 65 +3 +3 по сезону 1018.6 934.8
03 19.11 штиль 0 10 км ясно +3.1 -3.0 64 +2 +2 по сезону 1018.3 934.4 +0.6
06 19.11 В 1 20 км 9/0
[Ac lent Ci]
+8.5 -3.1 44 +8 +9 тепло 1016.6 934.4
09 19.11 С 1 20 км 8/0
[Ac As Ci]
+15.9 -4.2 25 +17 +20 тепло 1012.4 932.5
12 19.11 СЗ 1 20 км 4/0
[Ac trans]
+14.5 -2.5 31 +15 +16 тепло 1012.2 931.9
15 19.11 штиль 0 10 км 3/0
[Ac trans]
+7.8 -0.5 56 +7 +7 тепло 1014.1 931.9 +17.1
18 19.11 штиль 0 10 км ясно +6.6 -0.8 59 +6 +6 тепло 1013.3 930.8
21 19.11 Ю 1 10 км ясно +3.8 -0.9 71 +3 +3 по сезону 1013.1 929.8
00 20.11 СЗ 1 10 км ясно +4.0 +1.0 81 +3 +3 тепло 1013.1 929.9
03 20.11 Ю 1 10 км ясно +5.5 -0.2 67 +5 +5 тепло 1011.9 929.3 +3.6
06 20.11 штиль 0 50 км 8/0
[Ac und]
+11.0 +0.2 47 +11 +12 тепло 1011.0 929.9
09 20.11 СЗ 1 50 км 6/0
[Ac lent Cc]
+16.3 -3.6 25 +17 +20 тепло 1008.2 928.7
12 20.11 СЗ 2 50 км 3/0
[Ac lent]
+15.6 -2.1 30 +16 +17 тепло 1008.0 928.3
15 20.11 штиль 0 10 км 3/0
[Ac lent]
+8.3 +1.1 60 +8 +8 тепло 1010.1 928.4 +17.7
18 20.11 Ю 1 10 км 8/0
[Ac trans]
+6.9 -0.7 58 +6 +6 тепло 1009.1 927.0
21 20.11 С 1 10 км 8/0
[Ac trans]
+7.0 -0.9 57 +7 +7 тепло 1007.0 925.1
00 21.11 ЮЗ 1 10 км 3/0
[Ac trans]
+8.5 -0.7 52 +8 +8 тепло 1004.5 923.3
03 21.11 СЗ 2 10 км ясно +6.3 0.0 64 +4 +4 по сезону 1003.8 922.0 +5.5
06 21.11 ЮЗ 3
{11}
50 км 8/0
[Ac As]
+17.8 -2.1 26 +18 +18 тепло 999.4 921.0
09 21.11 Ю 4-15
{19}
20 км 5/0
[Ac lent]
+20.1 -2.2 22 +20 +22 тепло 996.3 918.8
12 21.11 Ю 3
{15}
20 км 6/0
[Ac lent Cs]
+18.8 -3.6 22 +19 +20 тепло 995.2 917.4
15 21.11 СЗ 2
{13}
10 км 8/0
[Ac As]
+6.1 +2.6 78 +4 +4 по сезону 998.2 916.8 +20.1
18 21.11 Ю 5-18
{18}
10 км 9/0
[Ac As]
+18.3 -2.3 25 +18 +18 тепло 992.6 914.8
21 21.11 З 3
{18}
4000 м дымка 8/0
[As trans]
+3.9 +1.0 81 0 0 по сезону 998.3 916.3
00 22.11 штиль 0 500 м туман 8/0
[Ac As]
+5.5 +3.3 86 +5 +5 тепло 1003.9 922.0
03 22.11 С 3 10 км слабый ливневой дождь {туман} 10/10 300 м
[Cb cap]
+5.0 +3.0 87 +1 +1 по сезону 1007.7 925.3 +3.2 0.6
06 22.11 В 1 4000 м ливневой снег 10/10 300 м
[Cb cap]
+0.6 -0.8 90 -1 -1 по сезону 1013.3 929.1 +0.5
09 22.11 В 2 2000 м слабый снег {ливн. осадки} 10/10 300 м
[Frnb Ns]
+0.5 -1.4 87 -3 -3 холодно 1014.7 930.3
12 22.11 В 2 10 км слабый снег {ливн. осадки} 10/10 300 м
[Frnb Ns]
-0.1 -2.1 86 -4 -4 очень
холодно
1015.4 930.8
15 22.11 В 2 10 км {снег} 10/10 600 м
[Sc]
+0.6 -3.3 75 -3 -3 холодно 1015.8 931.4 +4.9 7
18 22.11 В 1 10 км {снег} 10/10 600 м
[Sc]
+0.4 -3.1 77 -1 -1 по сезону 1015.5 931.0
21 22.11 В 1 10 км 10/10 300 м
[Sc]
0.0 -3.5 77 -2 -2 по сезону 1015.0 930.4
00 23.11 штиль 0 10 км 10/10 600 м
[Sc]
-1.0 -3.4 84 -2 -2 по сезону 1014.2 929.4
03 23.11 З 1 10 км ясно -1.3 -4.0 82 -3 -3 прохладно 1012.3 927.5 -1.3 1
06 23.11 штиль 0 4000 м дымка 9/9 300 м
[Sc]
-1.3 -3.1 88 -2 -2 прохладно 1012.8 928.0 -2.1
09 23.11 З 2 4000 м дымка 10/10 300 м
[St]
-0.4 -2.7 84 -4 -4 холодно 1013.1 928.6
12 23.11 З 2 10 км 10/10 300 м
[St]
+0.3 -2.7 80 -3 -3 очень
холодно
1014.5 930.1
15 23.11 З 2 4000 м слабая морось 10/10 300 м
[St]
-1.1 -3.1 86 -5 -5 холодно 1017.9 932.8 +0.7 0.0
18 23.11 СЗ 2 1000 м слабая переохл. морось (гололёд) 10/10 300 м
[St]
-2.6 -3.8 91 -7 -7 холодно 1020.2 934.4
21 23.11 СЗ 2 1000 м снежные зёрна {морось} [диам. гололёда 1 мм] 10/10 300 м
[St]
-2.7 -3.9 91 -7 -7 холодно 1020.3 934.5
00 24.11 З 1 1000 м слабая переохл. морось (гололёд) {снег} 10/10 300 м
[St]
-2.8 -4.0 91 -5 -5 прохладно 1020.2 934.4
03 24.11 З 2 1000 м слабый снег {морось} [диам. гололёда 2 мм] 10/10 300 м
[Frnb Ns]
-3.1 -4.2 92 -7 -7 холодно 1021.2 935.2 -3.1 0.9 1
06 24.11 штиль 0 1000 м крупа {ливн. осадки, снег} 10/10 300 м
[Cb cap]
-2.8 -4.2 90 -4 -4 прохладно 1021.7 935.7 -3.1

 

Местоположение метеостанции Владикавказ (Северная Осетия, Россия): широта 43.03 долгота 44.68 высота над уровнем моря 703 м.

В архиве по умолчанию представлена погода в Владикавказе за последнюю неделю. Архивные данные за месяц целиком и за предыдущие месяцы, начиная с января 2011 года, Вы можете получить, выбрав интересующий диапазон дат из раскрывающегося списка и нажав кнопку "Ввод!".

Внимание! Время в таблицах - всемирное. Для получения местного времени необходимо прибавить поправку, которая в Владикавказе равна 3 ч.

Смотрите также архив погоды в соседних городах и на ближайших метеорологических станциях:

Погода в Назрани (Ингушетия, Россия) (19 км)
Погода в Алагире (Северная Осетия, Россия) (35 км)
Погода в ?????????? (Грузия) (76 км)
Погода в Моздоке (Северная Осетия, Россия) (78 км)
Погода в Шатое (Чечня, Россия) (83 км)
Погода в Наурской (Чечня, Россия) (86 км)
Погода в Грозном (Чечня, Россия) (88 км)
Погода в Прохладный (Кабардино-Балкария, Россия) (95 км)
Погода в Нальчике (Кабардино-Балкария, Россия) (102 км)
Погода в Гудермесе (Чечня, Россия) (122 км)

Пояснения к столбцам:

Ветер - указаны скорость ветра в м/с - средняя за 10 мин, порывы в срок и между сроками (в фигурных скобках) и направление, откуда дует ветер: С - северный, СВ - северо-восточный, В - восточный, ЮВ - юго-восточный, Ю - южный, ЮЗ - юго-западный, З - западный, СЗ - северо-западный.
Видимость - горизонтальная дальность видимости в метрах или километрах. При видимости от 1 до 10 км при отсутствии осадков обычно наблюдается дымка, при ухудшении видимости до 1 км и менее - туман. В сухую погоду видимость может ухудшаться дымом, пылью или мглою.
Явления - указаны атмосферные явления, наблюдавшиеся в срок или в последний час перед сроком; фигурными скобками обозначены явления, наблюдавшиеся между сроками (за 1-3 часа до срока); квадратными скобками обозначены град или гололедные отложения с указанием их диаметра в мм.
Облачность - указаны через наклонную черту общая и нижняя облачность в баллах и высота нижней границы облаков в метрах; квадратными скобками обозначены формы облаков: Ci - перистые, Cs - перисто-слоистые, Cc - перисто-кучевые, Ac - высококучевые, As - высокослоистые, Sc - слоисто-кучевые, Ns - слоисто-дождевые, Cu - кучевые, Cb - кучево-дождевые. Подробнее классификацию облаков см. в Атласе облаков (PDF).
T - Температура воздуха - температура, измеренная на высоте 2 м над землей.
Td - Температура точки росы - температура, при понижении до которой содержащийся в воздухе водяной пар достигнет насыщения.
f - Относительная влажность воздуха - влажноcть воздуха, измеренная на высоте 2 м над землей.
Te - Эффективная температура - температура, которую ощущает одетый по сезону человек в тени. Характеристика душности погоды. При расчете учитывается влияние влажности воздуха и скорости ветра на теплоощущения человека.
Tes - Эффективная температура на солнце - температура, которую ощущает человек, с поправкой на солнечный нагрев. Характеристика знойности погоды. Зависит от высоты солнца над горизонтом, облачности и скорости ветра. Ночью, в пасмурную погоду, а также при ветре 12 м/с и более поправка равна нулю.
P - Атмосферное давление - приведенное к уровню моря атмосферное давление.
Po - Атмосферное давление - измеренное на уровне метеостанции атмосферное давление.
Tmin - Минимальная температура - минимум температуры воздуха на высоте 2 м над землей.
Tmax - Максимальная температура - максимум температуры воздуха на высоте 2 м над землей.
R - Количество осадков - Количество выпавших осадков за период времени, мм. При наведении курсора мыши на число - период времени, за который выпало указанное количество осадков.
R24 - Количество осадков - Количество выпавших осадков за 24 часа, мм.
S - Снежный покров - Высота снежного покрова, см. При наведении курсора мыши на число - состояние снежного покрова и степень покрытия местности в баллах.